Regional Weather Roundup
Issued by NWS

Home | Current Version | Previous Version | Text Only | Print | Product List | Glossary On
Versions: 1 2 3 4 5 6 7 8 9 10 11 12 13 14 15 16 17 18 19 20 21 22 23 24 25 26 27 28 29 30 31 32 33 34 35 36 37 38 39 40 41 42 43 44 45 46 47 48 49 50
000
ASUS43 KFSD 240210
RWRSD

WEATHER ROUNDUP FOR SOUTH DAKOTA
NATIONAL WEATHER SERVICE SIOUX FALLS SD
900 PM CDT TUE AUG 23 2016

NOTE: "FAIR" INDICATES FEW OR NO CLOUDS BELOW 12,000 FEET WITH NO
SIGNIFICANT WEATHER AND/OR OBSTRUCTIONS TO VISIBILITY.


SDZ001>005-009-010-012>017-240300-
NORTHWEST AND NORTH CENTRAL SOUTH DAKOTA

CITY           SKY/WX    TMP DP  RH WIND       PRES   REMARKS
BUFFALO          N/A     69  33  26 NW7       29.94R
FAITH            N/A     65  38  36 NW12      29.96R
MOBRIDGE       PTCLDY    74  42  31 NW10      29.86R
$$

SDZ012>016-024>037-041>051-057-063-072>074-240300-
SOUTHWEST AND SOUTH CENTRAL SOUTH DAKOTA

CITY           SKY/WX    TMP DP  RH WIND       PRES   REMARKS
RAPID CTY ARPT PTCLDY    68  34  28 N7        30.00R
PIERRE         PTCLDY    71  44  37 N12       29.87R
CUSTER         CLOUDY    63  33  32 NE8       30.10F
ELLSWORTH AFB  CLEAR     73  32  21 N17       29.99R
PHILIP         PTCLDY    64  42  44 NW10      29.94R
PINE RIDGE     MOCLDY    65  46  50 NE6       30.00R
WINNER         FAIR      71  50  47 NW6       29.88R
$$

SDZ004>011-016>023-039-040-240300-
NORTHEAST SOUTH DAKOTA

CITY           SKY/WX    TMP DP  RH WIND       PRES   REMARKS
ABERDEEN       MOCLDY    74  63  68 N10       29.78R
WATERTOWN      MOCLDY    71  68  90 S6        29.79R
BROOKINGS      CLOUDY    70  67  90 SE8       29.79F
SISSETON         N/A     74  67  78 S6        29.76R
$$

SDZ017-020-022-023-036>040-048>070-240300-
SOUTHEAST SOUTH DAKOTA

CITY           SKY/WX    TMP DP  RH WIND       PRES   REMARKS
SIOUX FALLS    CLOUDY    73  70  90 E5        29.80R
HURON          MOCLDY    78  70  76 W10G21    29.76R
CHAMBERLAIN    CLEAR     75  56  51 NW8       29.84R
MITCHELL       CLEAR     74  71  91 SE7       29.76S
YANKTON        MOCLDY    75  72  88 E7        29.75S
$$

ABBREVIATIONS USED IN REMARKS
   TC - TEMPERATURE IN CELSIUS
  WCI - WIND CHILL INDEX
   HX - HEAT INDEX
  VSB - VISIBILITY





USA.gov is the U.S. government's official web portal to all federal, state and local government web resources and services.